Time,TemperatureF,DewpointF,PressureIn,WindDirection,WindDirectionDegrees,WindSpeedMPH,WindSpeedGustMPH,Humidity,HourlyPrecipIn,Conditions,Clouds,dailyrainin,SoftwareType,DateUTC
2013-03-13 00:03:00,42.0,31.0,30.11,NW,326,0.0,0.0,65,0.00,,,0.00,,2013-03-13 04:03:00,
2013-03-13 00:13:00,42.0,31.0,30.11,NW,326,0.0,0.0,65,0.00,,,0.00,,2013-03-13 04:13:00,
2013-03-13 00:22:00,41.0,32.0,30.11,NW,326,0.0,0.0,69,0.00,,,0.00,,2013-03-13 04:22:00,
2013-03-13 00:32:00,41.0,31.0,30.11,NW,326,0.0,0.0,68,0.00,,,0.00,,2013-03-13 04:32:00,
2013-03-13 00:43:00,41.0,31.0,30.11,NW,326,0.0,0.0,68,0.00,,,0.00,,2013-03-13 04:43:00,
2013-03-13 00:53:00,42.0,31.0,30.11,NW,326,0.0,1.0,64,0.00,,,0.00,,2013-03-13 04:53:00,
2013-03-13 01:02:00,43.0,30.0,30.11,NW,326,0.0,1.0,61,0.00,,,0.00,,2013-03-13 05:02:00,
2013-03-13 01:12:00,43.0,30.0,30.11,NW,326,0.0,1.0,61,0.00,,,0.00,,2013-03-13 05:12:00,
2013-03-13 01:22:00,44.0,31.0,30.12,NW,326,0.0,0.0,59,0.00,,,0.00,,2013-03-13 05:22:00,
2013-03-13 01:32:00,43.0,30.0,30.12,West,279,0.0,3.0,61,0.00,,,0.00,,2013-03-13 05:32:00,
2013-03-13 01:42:00,43.0,30.0,30.12,West,279,0.0,3.0,61,0.00,,,0.00,,2013-03-13 05:42:00,
2013-03-13 01:52:00,43.0,30.0,30.12,West,279,0.0,1.0,60,0.00,,,0.00,,2013-03-13 05:52:00,
2013-03-13 02:02:00,43.0,30.0,30.12,West,279,0.0,1.0,60,0.00,,,0.00,,2013-03-13 06:02:00,
2013-03-13 02:12:00,43.0,30.0,30.12,West,279,0.0,1.0,60,0.00,,,0.00,,2013-03-13 06:12:00,
2013-03-13 02:23:00,42.0,29.0,30.12,West,279,0.0,1.0,60,0.00,,,0.00,,2013-03-13 06:23:00,
2013-03-13 02:32:00,42.0,30.0,30.12,West,279,0.0,0.0,62,0.00,,,0.00,,2013-03-13 06:32:00,
2013-03-13 02:42:00,42.0,30.0,30.12,West,279,0.0,0.0,62,0.00,,,0.00,,2013-03-13 06:42:00,
2013-03-13 02:53:00,42.0,30.0,30.12,West,279,0.0,0.0,61,0.00,,,0.00,,2013-03-13 06:53:00,
2013-03-13 03:02:00,41.0,29.0,30.11,West,279,0.0,0.0,61,0.00,,,0.00,,2013-03-13 07:02:00,
2013-03-13 03:12:00,41.0,29.0,30.11,West,279,0.0,0.0,61,0.00,,,0.00,,2013-03-13 07:12:00,
2013-03-13 03:22:00,41.0,29.0,30.11,West,279,0.0,0.0,62,0.00,,,0.00,,2013-03-13 07:22:00,
2013-03-13 03:32:00,40.0,28.0,30.11,West,279,0.0,0.0,63,0.00,,,0.00,,2013-03-13 07:32:00,
2013-03-13 03:42:00,40.0,28.0,30.11,West,279,0.0,0.0,63,0.00,,,0.00,,2013-03-13 07:42:00,
2013-03-13 03:53:00,40.0,29.0,30.11,West,279,0.0,0.0,65,0.00,,,0.00,,2013-03-13 07:53:00,
2013-03-13 04:03:00,40.0,29.0,30.11,West,279,0.0,0.0,65,0.00,,,0.00,,2013-03-13 08:03:00,
2013-03-13 04:12:00,40.0,29.0,30.11,West,279,0.0,0.0,65,0.00,,,0.00,,2013-03-13 08:12:00,
2013-03-13 12:03:00,44.0,27.0,30.22,WNW,302,7.0,12.0,50,0.00,,,0.00,,2013-03-13 16:03:00,
2013-03-13 12:12:00,44.0,27.0,30.22,WNW,302,7.0,12.0,50,0.00,,,0.00,,2013-03-13 16:12:00,
2013-03-13 12:22:00,43.0,24.0,30.22,NNW,328,4.0,12.0,47,0.00,,,0.00,,2013-03-13 16:22:00,
2013-03-13 12:32:00,44.0,25.0,30.22,WNW,287,7.0,14.0,46,0.00,,,0.00,,2013-03-13 16:32:00,
2013-03-13 12:42:00,44.0,25.0,30.22,WNW,287,7.0,14.0,46,0.00,,,0.00,,2013-03-13 16:42:00,
2013-03-13 12:52:00,44.0,25.0,30.22,WSW,256,5.0,11.0,46,0.00,,,0.00,,2013-03-13 16:52:00,
2013-03-13 13:02:00,44.0,25.0,30.22,WNW,298,4.0,9.0,46,0.00,,,0.00,,2013-03-13 17:02:00,
2013-03-13 13:12:00,44.0,25.0,30.22,WNW,298,4.0,9.0,46,0.00,,,0.00,,2013-03-13 17:12:00,
2013-03-13 13:22:00,44.0,23.0,30.22,WNW,298,4.0,15.0,44,0.00,,,0.00,,2013-03-13 17:22:00,
2013-03-13 13:32:00,43.0,24.0,30.22,WNW,292,6.0,11.0,47,0.00,,,0.00,,2013-03-13 17:32:00,
2013-03-13 13:42:00,43.0,24.0,30.22,WNW,292,6.0,11.0,47,0.00,,,0.00,,2013-03-13 17:42:00,
2013-03-13 13:53:00,45.0,24.0,30.22,WNW,298,6.0,13.0,44,0.00,,,0.00,,2013-03-13 17:53:00,
2013-03-13 14:02:00,44.0,26.0,30.21,NW,318,3.0,14.0,48,0.00,,,0.00,,2013-03-13 18:02:00,
2013-03-13 14:12:00,44.0,26.0,30.21,NW,318,3.0,14.0,48,0.00,,,0.00,,2013-03-13 18:12:00,
2013-03-13 14:22:00,46.0,27.0,30.21,NNW,327,5.0,12.0,47,0.00,,,0.00,,2013-03-13 18:22:00,
2013-03-13 14:33:00,46.0,25.0,30.21,WNW,293,5.0,13.0,43,0.00,,,0.00,,2013-03-13 18:33:00,
2013-03-13 14:42:00,46.0,25.0,30.21,WNW,293,5.0,13.0,43,0.00,,,0.00,,2013-03-13 18:42:00,
2013-03-13 14:52:00,47.0,27.0,30.20,WNW,294,6.0,10.0,45,0.00,,,0.00,,2013-03-13 18:52:00,
2013-03-13 15:02:00,46.0,23.0,30.20,NNW,329,7.0,11.0,40,0.00,,,0.00,,2013-03-13 19:02:00,
2013-03-13 15:12:00,46.0,23.0,30.20,NNW,329,7.0,11.0,40,0.00,,,0.00,,2013-03-13 19:12:00,
2013-03-13 15:22:00,45.0,23.0,30.20,WNW,294,8.0,13.0,42,0.00,,,0.00,,2013-03-13 19:22:00,
2013-03-13 15:32:00,45.0,23.0,30.20,NW,325,6.0,13.0,42,0.00,,,0.00,,2013-03-13 19:32:00,
2013-03-13 15:43:00,45.0,23.0,30.20,NW,325,6.0,13.0,42,0.00,,,0.00,,2013-03-13 19:43:00,
2013-03-13 15:53:00,47.0,27.0,30.21,WNW,298,5.0,19.0,46,0.00,,,0.00,,2013-03-13 19:53:00,
2013-03-13 16:02:00,46.0,25.0,30.21,WNW,303,5.0,11.0,43,0.00,,,0.00,,2013-03-13 20:02:00,
2013-03-13 16:12:00,46.0,25.0,30.21,WNW,303,5.0,11.0,43,0.00,,,0.00,,2013-03-13 20:12:00,
2013-03-13 16:22:00,47.0,24.0,30.21,NW,306,7.0,14.0,40,0.00,,,0.00,,2013-03-13 20:22:00,
2013-03-13 16:32:00,44.0,21.0,30.21,NW,319,4.0,12.0,39,0.00,,,0.00,,2013-03-13 20:32:00,
2013-03-13 16:42:00,44.0,21.0,30.21,NW,319,4.0,12.0,39,0.00,,,0.00,,2013-03-13 20:42:00,
2013-03-13 16:52:00,46.0,24.0,30.21,NW,315,8.0,14.0,41,0.00,,,0.00,,2013-03-13 20:52:00,
2013-03-13 17:02:00,46.0,24.0,30.21,NW,311,5.0,17.0,41,0.00,,,0.00,,2013-03-13 21:02:00,
2013-03-13 17:12:00,46.0,24.0,30.21,NW,311,5.0,17.0,41,0.00,,,0.00,,2013-03-13 21:12:00,
2013-03-13 17:22:00,46.0,22.0,30.21,NNW,346,5.0,10.0,38,0.00,,,0.00,,2013-03-13 21:22:00,
2013-03-13 17:33:00,45.0,19.0,30.22,WNW,298,5.0,7.0,35,0.00,,,0.00,,2013-03-13 21:33:00,
2013-03-13 17:42:00,45.0,19.0,30.22,WNW,298,5.0,7.0,35,0.00,,,0.00,,2013-03-13 21:42:00,
2013-03-13 17:52:00,45.0,22.0,30.22,NW,324,5.0,13.0,40,0.00,,,0.00,,2013-03-13 21:52:00,
2013-03-13 18:02:00,45.0,22.0,30.22,NW,324,5.0,13.0,40,0.00,,,0.00,,2013-03-13 22:02:00,
2013-03-13 18:12:00,45.0,22.0,30.22,NW,324,5.0,13.0,40,0.00,,,0.00,,2013-03-13 22:12:00,
2013-03-13 18:22:00,45.0,22.0,30.22,NW,324,5.0,13.0,40,0.00,,,0.00,,2013-03-13 22:22:00,
2013-03-13 23:53:00,32.0,20.0,30.34,NW,316,0.0,2.0,62,0.00,,,0.00,,2013-03-14 03:53:00,